Tracking 21612 objects as of 20-Oct-2020
HD Live streaming from Space Station
objects crossing your sky now

COSMOS 1809

Track COSMOS 1809 now!
10-day predictions
COSMOS 1809 is classified as:


NORAD ID: 17241
Int'l Code: 1986-101A
Perigee: 945.4 km
Apogee: 967.3 km
Inclination: 82.5 °
Period: 104.0 minutes
Semi major axis: 7327 km
RCS: 8.1003 m2 (large)
Launch date: December 18, 1986
Source: Commonwealth of Independent States (former USSR) (CIS)
Launch site: PLESETSK MISSILE AND SPACE COMPLEX (PKMTR)
aabbcc
Your satellite tracking list
Your tracking list is empty




NASA's NSSDC Master Catalog

Two Line Element Set (TLE):
1 17241U 86101A   20293.10015906  .00000044  00000-0  26087-4 0  9994
2 17241  82.5270 126.5845 0014940 197.9828 277.3161 13.84158559709107
Source of the keplerian elements: AFSPC